Regional Weather Roundup
Issued by NWS Burlington, VT

Home | Current Version | Previous Version | Text Only | Print | Product List | Glossary On
Versions: 1 2 3 4 5 6 7 8 9 10 11 12 13 14 15 16 17 18 19 20 21 22 23 24 25 26 27 28 29 30 31 32 33 34 35 36 37 38 39 40 41 42 43 44 45 46 47 48 49 50
000
ASUS41 KBTV 282230
RWRBTV
VERMONT REGIONAL WEATHER ROUNDUP
NATIONAL WEATHER SERVICE BURLINGTON VT
600 PM EDT FRI AUG 28 2015

NOTE: "FAIR" INDICATES FEW OR NO CLOUDS BELOW 12,000 FEET WITH NO
SIGNIFICANT WEATHER AND/OR OBSTRUCTIONS TO VISIBILITY.

* THESE REPORTS ARE NOT UNDER NWS QUALITY CONTROL AND/OR DO NOT
  REPORT WEATHER SUCH AS PRECIPITATION AND FOG.

VTZ001>019-282300-
_____VERMONT_____


CITY           SKY/WX    TMP DP  RH WIND       PRES   REMARKS
BURLINGTON     MOSUNNY   77  52  41 CALM      30.11S
MONTPELIER     SUNNY     70  53  54 NW5       30.18R
MORRISVILLE    MOSUNNY   74  54  49 CALM      30.15R
ST. JOHNSBURY*   N/A     73  52  47 MISG      30.11S
LYNDONVILLE*   FAIR      69  54  58 W5        30.16S
MIDDLEBURY*    FAIR      74  54  49 S3        30.12S
RUTLAND*       SUNNY     72  52  49 CALM      30.16S
SPRINGFIELD    MOSUNNY   75  50  41 W5        30.13R
HIGHGATE*      FAIR      70  60  70 CALM      30.12S
NEWPORT*       FAIR      67  55  64 CALM      30.15S
BENNINGTON     SUNNY     71  54  54 CALM      30.15S
SUTTON*          N/A     66 N/A N/A MISG        N/A
GALLUP MILLS*    N/A     64 N/A N/A MISG        N/A
MT. MANSFIELD*   N/A     57 N/A N/A NW15        N/A

_____LAKE CHAMPLAIN_____


CITY           SKY/WX    TMP DP  RH WIND       PRES   REMARKS
COLCHESTER RF*   N/A     73  57  56 SE3         N/A
DIAMOND ISL*     N/A     75  57  53 NE3         N/A

$$

NYZ007-026>031-035-052-083-282300-
_____NORTHERN NEW YORK_____


CITY           SKY/WX    TMP DP  RH WIND       PRES   REMARKS
PLATTSBURGH    SUNNY     72  57  59 E5        30.11S
SARANAC LAKE   SUNNY     69  51  52 W7        30.15S
MASSENA        SUNNY     71  56  58 SW6       30.13S
OGDENSBURG*    MOSUNNY   70  59  68 SW7       30.14S
POTSDAM*       SUNNY     70  61  73 W12       30.14S
STARK FALLS*     N/A     70 N/A N/A W6          N/A
WATERTOWN      SUNNY     68  55  63 SW7       30.17S
FT DRUM        SUNNY     69  55  62 W8        30.16S
ALBANY         PTSUNNY   74  55  51 W6        30.14S
GLENS FALLS    SUNNY     75  55  49 S8        30.12S

$$
NHZ002-005-011-282300-
_____NEW HAMPSHIRE_____


CITY           SKY/WX    TMP DP  RH WIND       PRES   REMARKS
LEBANON        SUNNY     77  54  44 NW8       30.11S
KEENE          SUNNY     75  54  46 W5        30.13S
MT WASHINGTON  MOSUNNY   50  39  66 CALM        N/A
PLYMOUTH       FAIR      73  55  53 CALM      30.11R
WHITEFIELD     SUNNY     71  53  52 W5        30.14R

$$

_____REGIONAL QUEBEC LOCATIONS_____


CITY           SKY/WX    TMP DP  RH WIND       PRES   REMARKS
MONTREAL       MOSUNNY   72  55  56 W12       30.11S
QUEBEC CITY    MOSUNNY   70  57  64 SW14      30.06F
SHERBROOKE     MOSUNNY   68  57  68 W7        30.13R

_____REGIONAL ONTARIO LOCATIONS_____


CITY           SKY/WX    TMP DP  RH WIND       PRES   REMARKS
OTTAWA         MOSUNNY   70  55  60 SW10      30.13S

______KEY______
VSB  - VISIBILITY IN MILES
WCI  - WIND CHILL INDEX
HX   - HEAT INDEX
$$
NNNN


USA.gov is the U.S. government's official web portal to all federal, state and local government web resources and services.